WMT3345 LIRF-LROP

Flight info

Callsign WMT3345
Flight time 1h 40m
Altitude 34000
Route OKUNO DCT ATRUP DCT MOKUN/N0451F330 DCT RAMAP DCT GINAM DCT AZBUX DCT NISVA DCT SOMOV DCT SORDU
Aircraft A321/M-SDE3FGHIRWY/LB1

Departure

Time 2026-05-05 17:23
Airport Rome–Fiumicino Leonardo da Vinci International Airport (LIRF)

Arrival

Time 2026-05-05 19:03
Airport Bucharest Henri Coandă International Airport (LROP)
Time Latitude Longitude Altitude Speed Heading
2026-05-05 16:43 41.79689 12.25620 19 ft 0 kts 297°
2026-05-05 17:05 41.79688 12.25623 18 ft 2 kts 297°
2026-05-05 17:05 41.79678 12.25652 21 ft 4 kts 307°
2026-05-05 17:06 41.79659 12.25671 20 ft 4 kts 359°
2026-05-05 17:06 41.79638 12.25665 20 ft 1 kts 25°
2026-05-05 17:06 41.79634 12.25663 20 ft 0 kts 25°
2026-05-05 17:08 41.79637 12.25665 18 ft 1 kts 25°
2026-05-05 17:09 41.79657 12.25678 20 ft 5 kts 25°
2026-05-05 17:09 41.79701 12.25705 20 ft 8 kts 25°
2026-05-05 17:09 41.79757 12.25740 18 ft 9 kts 25°
2026-05-05 17:09 41.79816 12.25777 18 ft 10 kts 25°
2026-05-05 17:10 41.79875 12.25822 20 ft 10 kts 28°
2026-05-05 17:10 41.79938 12.25863 19 ft 11 kts 25°
2026-05-05 17:10 41.80006 12.25905 17 ft 11 kts 25°
2026-05-05 17:10 41.80075 12.25948 19 ft 10 kts 24°
2026-05-05 17:11 41.80142 12.25989 16 ft 11 kts 25°
2026-05-05 17:11 41.80218 12.26036 14 ft 13 kts 25°
2026-05-05 17:11 41.80295 12.26083 13 ft 10 kts 25°
2026-05-05 17:11 41.80353 12.26120 15 ft 9 kts 25°
2026-05-05 17:12 41.80406 12.26152 13 ft 8 kts 24°
2026-05-05 17:12 41.80455 12.26172 13 ft 0 kts
2026-05-05 17:13 41.80456 12.26172 13 ft 1 kts
2026-05-05 17:13 41.80467 12.26173 13 ft 3 kts
2026-05-05 17:13 41.80489 12.26179 12 ft 4 kts 14°
2026-05-05 17:14 41.80513 12.26198 13 ft 4 kts 47°
2026-05-05 17:14 41.80526 12.26231 13 ft 4 kts 65°
2026-05-05 17:14 41.80536 12.26266 13 ft 4 kts 70°
2026-05-05 17:14 41.80546 12.26305 14 ft 5 kts 70°
2026-05-05 17:15 41.80557 12.26346 15 ft 5 kts 70°
2026-05-05 17:15 41.80570 12.26395 15 ft 6 kts 70°
2026-05-05 17:15 41.80589 12.26462 15 ft 9 kts 70°
2026-05-05 17:15 41.80615 12.26557 13 ft 12 kts 69°
2026-05-05 17:16 41.80640 12.26647 14 ft 9 kts 69°
2026-05-05 17:16 41.80662 12.26726 14 ft 9 kts 69°
2026-05-05 17:16 41.80689 12.26821 10 ft 13 kts 70°
2026-05-05 17:16 41.80722 12.26940 10 ft 11 kts 69°
2026-05-05 17:17 41.80737 12.26994 8 ft 7 kts 65°
2026-05-05 17:17 41.80775 12.27038 9 ft 8 kts 19°
2026-05-05 17:17 41.80827 12.27031 8 ft 5 kts 340°
2026-05-05 17:17 41.80844 12.27022 8 ft 1 kts 340°
2026-05-05 17:18 41.80857 12.27016 8 ft 2 kts 340°
2026-05-05 17:18 41.80862 12.27014 8 ft 0 kts 340°
2026-05-05 17:20 41.80863 12.27014 8 ft 0 kts 340°
2026-05-05 17:20 41.80870 12.27010 8 ft 2 kts 340°
2026-05-05 17:20 41.80890 12.27000 9 ft 4 kts 340°
2026-05-05 17:21 41.80922 12.26985 9 ft 6 kts 338°
2026-05-05 17:21 41.80955 12.26948 9 ft 7 kts 293°
2026-05-05 17:21 41.80948 12.26893 11 ft 0 kts 251°
2026-05-05 17:22 41.80947 12.26888 11 ft 0 kts 250°
2026-05-05 17:22 41.80934 12.26838 11 ft 23 kts 250°
2026-05-05 17:22 41.80791 12.26324 16 ft 92 kts 249°
2026-05-05 17:22 41.80496 12.25263 13 ft 149 kts 250°
2026-05-05 17:23 41.80081 12.23796 197 ft 176 kts 254°
2026-05-05 17:23 41.79637 12.22282 745 ft 178 kts 249°
2026-05-05 17:23 41.79045 12.20819 1297 ft 178 kts 227°
2026-05-05 17:23 41.78095 12.19799 1906 ft 174 kts 215°
2026-05-05 17:24 41.77089 12.18821 2225 ft 187 kts 216°
2026-05-05 17:24 41.76059 12.17671 2535 ft 196 kts 217°
2026-05-05 17:24 41.74847 12.16883 2950 ft 195 kts 192°
2026-05-05 17:24 41.73436 12.16821 3089 ft 215 kts 179°
2026-05-05 17:25 41.71866 12.16898 3314 ft 236 kts 179°
2026-05-05 17:25 41.70761 12.16956 3604 ft 243 kts 179°
2026-05-05 17:25 41.68479 12.17075 4026 ft 252 kts 179°
2026-05-05 17:25 41.66711 12.17164 4674 ft 256 kts 179°
2026-05-05 17:26 41.64920 12.17255 5339 ft 259 kts 179°
2026-05-05 17:26 41.63112 12.17347 5996 ft 263 kts 179°
2026-05-05 17:26 41.61264 12.17436 6584 ft 267 kts 181°
2026-05-05 17:26 41.59402 12.17523 7197 ft 270 kts 179°
2026-05-05 17:27 41.57503 12.17620 7747 ft 275 kts 178°
2026-05-05 17:27 41.55623 12.18183 8411 ft 281 kts 162°
2026-05-05 17:27 41.53895 12.19488 9025 ft 290 kts 147°
2026-05-05 17:27 41.52257 12.21079 9626 ft 293 kts 147°
2026-05-05 17:28 41.50598 12.22690 10212 ft 297 kts 147°
2026-05-05 17:28 41.48910 12.24351 10505 ft 313 kts 143°
2026-05-05 17:28 41.47491 12.26666 10624 ft 337 kts 117°
2026-05-05 17:28 41.46914 12.29767 10758 ft 358 kts 90°
2026-05-05 17:29 41.47448 12.33081 10880 ft 376 kts 63°
2026-05-05 17:29 41.48804 12.36071 11079 ft 389 kts 55°
2026-05-05 17:29 41.50498 12.38972 11532 ft 394 kts 43°
2026-05-05 17:29 41.52631 12.41255 12049 ft 395 kts 31°
2026-05-05 17:30 41.55057 12.42994 12629 ft 396 kts 22°
2026-05-05 17:30 41.57572 12.44499 13202 ft 399 kts 22°
2026-05-05 17:30 41.60103 12.46066 13758 ft 402 kts 23°
2026-05-05 17:30 41.62618 12.47650 14254 ft 406 kts 23°
2026-05-05 17:31 41.65172 12.49262 14749 ft 409 kts 23°
2026-05-05 17:31 41.67763 12.50891 15251 ft 413 kts 23°
2026-05-05 17:31 41.70367 12.52521 15756 ft 416 kts 22°
2026-05-05 17:31 41.73005 12.54167 16281 ft 419 kts 22°
2026-05-05 17:32 41.75652 12.55813 16798 ft 422 kts 22°
2026-05-05 17:32 41.78333 12.57477 17309 ft 426 kts 22°
2026-05-05 17:32 41.80974 12.59303 17791 ft 431 kts 30°
2026-05-05 17:32 41.83463 12.61580 18259 ft 435 kts 33°
2026-05-05 17:33 41.85947 12.63911 18667 ft 438 kts 33°
2026-05-05 17:33 41.88457 12.66273 19052 ft 440 kts 33°
2026-05-05 17:33 41.90969 12.68645 19489 ft 443 kts 33°
2026-05-05 17:33 41.93495 12.71033 19849 ft 446 kts 33°
2026-05-05 17:34 41.96037 12.73432 20230 ft 449 kts 33°
2026-05-05 17:34 41.98598 12.75847 20622 ft 451 kts 33°
2026-05-05 17:34 42.01147 12.78318 21020 ft 454 kts 37°
2026-05-05 17:34 42.03455 12.81238 21421 ft 457 kts 47°
2026-05-05 17:35 42.05393 12.84636 21793 ft 461 kts 57°
2026-05-05 17:35 42.07003 12.88384 22150 ft 464 kts 60°
2026-05-05 17:35 42.08567 12.92130 22544 ft 465 kts 60°
2026-05-05 17:35 42.10163 12.95934 22898 ft 468 kts 60°
2026-05-05 17:36 42.11752 12.99755 23256 ft 470 kts 60°
2026-05-05 17:36 42.13310 13.03639 23614 ft 472 kts 61°
2026-05-05 17:36 42.14844 13.07568 23905 ft 475 kts 62°
2026-05-05 17:36 42.16368 13.11532 24184 ft 477 kts 62°
2026-05-05 17:37 42.17891 13.15510 24459 ft 480 kts 62°
2026-05-05 17:37 42.18909 13.18160 24638 ft 481 kts 61°
2026-05-05 17:37 42.20983 13.23539 24987 ft 484 kts 61°
2026-05-05 17:37 42.22547 13.27570 25231 ft 487 kts 61°
2026-05-05 17:38 42.24125 13.31629 25493 ft 489 kts 60°
2026-05-05 17:38 42.25707 13.35701 25730 ft 492 kts 60°
2026-05-05 17:38 42.27295 13.39800 25989 ft 494 kts 60°
2026-05-05 17:38 42.28891 13.43927 26233 ft 496 kts 60°
2026-05-05 17:39 42.30492 13.48072 26485 ft 499 kts 60°
2026-05-05 17:39 42.32101 13.52248 26733 ft 501 kts 60°
2026-05-05 17:39 42.33586 13.56501 27065 ft 503 kts 68°
2026-05-05 17:39 42.34619 13.61033 27425 ft 504 kts 76°
2026-05-05 17:40 42.35146 13.65719 27739 ft 506 kts 85°
2026-05-05 17:40 42.35340 13.70465 28067 ft 506 kts 86°
2026-05-05 17:40 42.35530 13.75226 28399 ft 506 kts 86°
2026-05-05 17:40 42.35719 13.79911 28747 ft 507 kts 86°
2026-05-05 17:41 42.35915 13.84667 29123 ft 506 kts 86°
2026-05-05 17:41 42.36109 13.89418 29440 ft 507 kts 86°
2026-05-05 17:41 42.36302 13.94185 29722 ft 508 kts 86°
2026-05-05 17:41 42.36491 13.98958 30031 ft 509 kts 86°
2026-05-05 17:42 42.36674 14.03724 30330 ft 509 kts 86°
2026-05-05 17:42 42.36856 14.08521 30623 ft 509 kts 86°
2026-05-05 17:42 42.37036 14.13302 30899 ft 509 kts 86°
2026-05-05 17:42 42.37211 14.18063 31180 ft 509 kts 86°
2026-05-05 17:43 42.37385 14.22852 31446 ft 509 kts 86°
2026-05-05 17:43 42.37559 14.27639 31735 ft 509 kts 86°
2026-05-05 17:43 42.37734 14.32425 32008 ft 509 kts 86°
2026-05-05 17:43 42.37905 14.37193 32267 ft 509 kts 86°
2026-05-05 17:44 42.38070 14.41989 32521 ft 509 kts 86°
2026-05-05 17:44 42.38232 14.46757 32781 ft 509 kts 86°
2026-05-05 17:44 42.38393 14.51541 33034 ft 509 kts 86°
2026-05-05 17:44 42.38555 14.56328 33291 ft 509 kts 86°
2026-05-05 17:45 42.38716 14.61117 33535 ft 509 kts 86°
2026-05-05 17:45 42.38875 14.65898 33774 ft 510 kts 86°
2026-05-05 17:45 42.39031 14.70692 33967 ft 511 kts 86°
2026-05-05 17:46 42.39336 14.80320 34007 ft 513 kts 86°
2026-05-05 17:46 42.39630 14.89957 34008 ft 513 kts 86°
2026-05-05 17:47 42.39921 14.99530 34016 ft 511 kts 86°
2026-05-05 17:47 42.40205 15.09183 34007 ft 511 kts 86°
2026-05-05 17:48 42.40483 15.18720 34004 ft 497 kts 86°
2026-05-05 17:48 42.40613 15.23267 34015 ft 483 kts 86°
2026-05-05 17:48 42.40736 15.27746 34017 ft 475 kts 86°
2026-05-05 17:49 42.40975 15.36693 34011 ft 476 kts 86°
2026-05-05 17:49 42.41207 15.45652 34021 ft 476 kts 86°
2026-05-05 17:50 42.41441 15.54597 34009 ft 476 kts 86°
2026-05-05 17:50 42.41666 15.63551 34018 ft 476 kts 86°
2026-05-05 17:51 42.41878 15.72529 34029 ft 476 kts 86°
2026-05-05 17:51 42.42076 15.81480 34031 ft 476 kts 86°
2026-05-05 17:52 42.42275 15.90431 34035 ft 476 kts 86°
2026-05-05 17:52 42.42471 15.99308 34040 ft 475 kts 86°
2026-05-05 17:53 42.42660 16.08241 34037 ft 474 kts 86°
2026-05-05 17:53 42.42841 16.17156 34038 ft 474 kts 86°
2026-05-05 17:54 42.43007 16.26076 34043 ft 474 kts 86°
2026-05-05 17:54 42.43162 16.34987 34051 ft 474 kts 86°
2026-05-05 17:55 42.43319 16.43903 34051 ft 473 kts 86°
2026-05-05 17:55 42.43471 16.52793 34066 ft 472 kts 86°
2026-05-05 17:56 42.43593 16.60171 34065 ft 471 kts 86°
2026-05-05 17:56 42.43729 16.69027 34059 ft 470 kts 86°
2026-05-05 17:57 42.43861 16.77854 34072 ft 469 kts 87°
2026-05-05 17:57 42.43983 16.86661 34070 ft 468 kts 87°
2026-05-05 17:58 42.44101 16.95414 34067 ft 467 kts 87°
2026-05-05 17:58 42.44213 17.04247 34065 ft 467 kts 87°
2026-05-05 17:59 42.44313 17.12971 34081 ft 466 kts 88°
2026-05-05 17:59 42.44400 17.21744 34073 ft 465 kts 88°
2026-05-05 18:00 42.44484 17.30484 34072 ft 464 kts 88°
2026-05-05 18:00 42.44575 17.39228 34072 ft 464 kts 88°
2026-05-05 18:01 42.44657 17.47956 34078 ft 463 kts 88°
2026-05-05 18:01 42.44722 17.56685 34075 ft 463 kts 88°
2026-05-05 18:02 42.44779 17.65401 34077 ft 463 kts 88°
2026-05-05 18:02 42.44834 17.74096 34088 ft 462 kts 88°
2026-05-05 18:03 42.44885 17.82809 34087 ft 462 kts 88°
2026-05-05 18:03 42.44926 17.91442 34090 ft 462 kts 88°
2026-05-05 18:04 42.44958 18.00141 34092 ft 462 kts 88°
2026-05-05 18:04 42.44983 18.08832 34095 ft 462 kts 88°
2026-05-05 18:05 42.45004 18.17547 34096 ft 462 kts 88°
2026-05-05 18:05 42.45026 18.26238 34095 ft 462 kts 88°
2026-05-05 18:06 42.45034 18.34941 34094 ft 462 kts 88°
2026-05-05 18:06 42.45230 18.43631 34102 ft 460 kts 79°
2026-05-05 18:07 42.46875 18.51890 34094 ft 453 kts 63°
2026-05-05 18:07 42.49800 18.59383 34097 ft 449 kts 56°
2026-05-05 18:08 42.52867 18.66755 34099 ft 449 kts 56°
2026-05-05 18:08 42.55906 18.74091 34100 ft 449 kts 56°
2026-05-05 18:09 42.58970 18.81487 34116 ft 449 kts 56°
2026-05-05 18:09 42.62024 18.88869 34113 ft 449 kts 56°
2026-05-05 18:10 42.65074 18.96268 34122 ft 448 kts 56°
2026-05-05 18:10 42.68117 19.03666 34093 ft 452 kts 56°
2026-05-05 18:11 42.71226 19.11229 34086 ft 464 kts 56°
2026-05-05 18:11 42.74410 19.19021 34087 ft 477 kts 56°
2026-05-05 18:12 42.77638 19.26959 34101 ft 481 kts 56°
2026-05-05 18:12 42.80876 19.34950 34082 ft 482 kts 56°
2026-05-05 18:13 42.84100 19.42889 34084 ft 482 kts 56°
2026-05-05 18:13 42.87339 19.50882 34087 ft 482 kts 56°
2026-05-05 18:14 42.90569 19.58890 34084 ft 483 kts 56°
2026-05-05 18:14 42.93799 19.66915 34083 ft 482 kts 57°
2026-05-05 18:15 42.97032 19.74957 34052 ft 486 kts 57°
2026-05-05 18:15 43.00300 19.83119 34054 ft 493 kts 57°
2026-05-05 18:16 43.03583 19.91368 34052 ft 494 kts 57°
2026-05-05 18:16 43.06855 19.99612 34040 ft 494 kts 57°
2026-05-05 18:17 43.10135 20.07879 34039 ft 494 kts 57°
2026-05-05 18:17 43.13405 20.16148 34057 ft 494 kts 57°
2026-05-05 18:18 43.16672 20.24428 34066 ft 493 kts 57°
2026-05-05 18:18 43.19898 20.32635 34062 ft 491 kts 58°
2026-05-05 18:19 43.23127 20.40869 34051 ft 490 kts 58°
2026-05-05 18:19 43.26349 20.49110 34047 ft 490 kts 58°
2026-05-05 18:20 43.29556 20.57345 34036 ft 489 kts 58°
2026-05-05 18:20 43.32757 20.65592 34049 ft 488 kts 58°
2026-05-05 18:21 43.35940 20.73801 34034 ft 487 kts 58°
2026-05-05 18:21 43.38980 20.82137 34018 ft 490 kts 67°
2026-05-05 18:22 43.40272 20.91359 33998 ft 497 kts 88°
2026-05-05 18:22 43.39243 21.00696 34012 ft 500 kts 107°
2026-05-05 18:23 43.37174 21.09878 34001 ft 501 kts 106°
2026-05-05 18:23 43.35119 21.18976 34013 ft 502 kts 106°
2026-05-05 18:24 43.33035 21.28140 34014 ft 502 kts 106°
2026-05-05 18:24 43.30946 21.37281 34015 ft 502 kts 106°
2026-05-05 18:25 43.28848 21.46437 34008 ft 503 kts 106°
2026-05-05 18:25 43.26732 21.55595 33997 ft 504 kts 106°
2026-05-05 18:26 43.24616 21.64756 33990 ft 504 kts 106°
2026-05-05 18:26 43.22489 21.73918 34007 ft 504 kts 106°
2026-05-05 18:27 43.20354 21.83071 33994 ft 504 kts 106°
2026-05-05 18:27 43.18214 21.92228 33994 ft 504 kts 106°
2026-05-05 18:28 43.14990 22.05892 34019 ft 504 kts 105°
2026-05-05 18:28 43.12841 22.15016 34006 ft 503 kts 105°
2026-05-05 18:29 43.10688 22.24107 34017 ft 503 kts 105°
2026-05-05 18:29 43.08536 22.33109 34005 ft 490 kts 106°
2026-05-05 18:30 43.06425 22.41907 34025 ft 484 kts 105°
2026-05-05 18:30 43.04327 22.50654 34024 ft 483 kts 105°
2026-05-05 18:31 43.02229 22.59373 34028 ft 483 kts 105°
2026-05-05 18:31 43.00114 22.68099 34054 ft 484 kts 105°
2026-05-05 18:32 42.98947 22.77044 34060 ft 475 kts 86°
2026-05-05 18:32 42.99860 22.85831 34056 ft 464 kts 68°
2026-05-05 18:33 43.02442 22.93791 34056 ft 457 kts 59°
2026-05-05 18:33 43.05289 23.01584 34065 ft 458 kts 59°
2026-05-05 18:34 43.08097 23.09331 34065 ft 458 kts 59°
2026-05-05 18:34 43.10925 23.17127 34073 ft 458 kts 59°
2026-05-05 18:35 43.13760 23.24933 34064 ft 458 kts 59°
2026-05-05 18:35 43.16588 23.32747 34071 ft 457 kts 59°
2026-05-05 18:36 43.19404 23.40556 34057 ft 457 kts 60°
2026-05-05 18:36 43.22206 23.48366 34048 ft 456 kts 60°
2026-05-05 18:37 43.24996 23.56169 34047 ft 456 kts 60°
2026-05-05 18:37 43.27789 23.63992 34047 ft 456 kts 60°
2026-05-05 18:38 43.30559 23.71764 34061 ft 456 kts 59°
2026-05-05 18:38 43.33334 23.79580 34051 ft 455 kts 59°
2026-05-05 18:39 43.36093 23.87386 34042 ft 454 kts 59°
2026-05-05 18:39 43.38843 23.95185 34000 ft 454 kts 59°
2026-05-05 18:40 43.40223 23.99093 33533 ft 453 kts 59°
2026-05-05 18:40 43.41605 24.03009 32672 ft 457 kts 59°
2026-05-05 18:40 43.42992 24.06944 31883 ft 458 kts 60°
2026-05-05 18:40 43.44385 24.10904 31078 ft 461 kts 60°
2026-05-05 18:41 43.45782 24.14882 30190 ft 465 kts 60°
2026-05-05 18:41 43.47189 24.18897 29211 ft 467 kts 60°
2026-05-05 18:41 43.48602 24.22939 28304 ft 467 kts 60°
2026-05-05 18:41 43.50009 24.26970 27282 ft 469 kts 60°
2026-05-05 18:42 43.51397 24.30958 26309 ft 465 kts 61°
2026-05-05 18:42 43.52779 24.34950 25588 ft 458 kts 61°
2026-05-05 18:42 43.54137 24.38886 24949 ft 454 kts 61°
2026-05-05 18:42 43.55484 24.42787 24288 ft 450 kts 62°
2026-05-05 18:43 43.56829 24.46677 23637 ft 446 kts 62°
2026-05-05 18:43 43.58158 24.50516 22932 ft 442 kts 62°
2026-05-05 18:43 43.59471 24.54312 22312 ft 436 kts 62°
2026-05-05 18:43 43.60768 24.58065 21678 ft 430 kts 62°
2026-05-05 18:44 43.62047 24.61772 21070 ft 425 kts 62°
2026-05-05 18:44 43.63303 24.65429 20463 ft 420 kts 62°
2026-05-05 18:44 43.64553 24.69070 19858 ft 416 kts 62°
2026-05-05 18:44 43.65780 24.72648 19271 ft 412 kts 62°
2026-05-05 18:45 43.67003 24.76216 18697 ft 408 kts 63°
2026-05-05 18:45 43.68211 24.79749 18121 ft 405 kts 63°
2026-05-05 18:45 43.69421 24.83228 17654 ft 397 kts 59°
2026-05-05 18:45 43.71011 24.86225 17562 ft 379 kts 44°
2026-05-05 18:46 43.72951 24.88566 17463 ft 366 kts 38°
2026-05-05 18:46 43.74886 24.90778 17247 ft 362 kts 38°
2026-05-05 18:46 43.76793 24.92944 16992 ft 345 kts 38°
2026-05-05 18:46 43.78601 24.94995 16741 ft 328 kts 38°
2026-05-05 18:47 43.80320 24.96943 16483 ft 312 kts 38°
2026-05-05 18:47 43.81979 24.98826 16227 ft 305 kts 38°
2026-05-05 18:47 43.83616 25.00686 15978 ft 303 kts 38°
2026-05-05 18:47 43.85233 25.02528 15698 ft 301 kts 38°
2026-05-05 18:48 43.86843 25.04362 15372 ft 298 kts 38°
2026-05-05 18:48 43.88445 25.06186 15029 ft 296 kts 39°
2026-05-05 18:48 43.90028 25.07992 14685 ft 294 kts 39°
2026-05-05 18:48 43.91606 25.09793 14352 ft 292 kts 39°
2026-05-05 18:49 43.93173 25.11578 14017 ft 290 kts 39°
2026-05-05 18:49 43.94727 25.13350 13667 ft 289 kts 39°
2026-05-05 18:49 43.96329 25.15181 13304 ft 311 kts 39°
2026-05-05 18:49 43.98026 25.17125 12928 ft 318 kts 39°
2026-05-05 18:50 43.99732 25.19079 12562 ft 318 kts 39°
2026-05-05 18:50 44.01437 25.21035 12204 ft 316 kts 39°
2026-05-05 18:50 44.03104 25.22945 11853 ft 315 kts 39°
2026-05-05 18:50 44.04783 25.24873 11499 ft 313 kts 39°
2026-05-05 18:51 44.06457 25.26802 11150 ft 311 kts 39°
2026-05-05 18:51 44.08116 25.28714 10999 ft 310 kts 39°
2026-05-05 18:51 44.09774 25.30625 11006 ft 311 kts 38°
2026-05-05 18:51 44.11441 25.32545 10849 ft 311 kts 38°
2026-05-05 18:52 44.13101 25.34461 10501 ft 308 kts 38°
2026-05-05 18:52 44.14747 25.36363 10167 ft 307 kts 38°
2026-05-05 18:52 44.16383 25.38252 9828 ft 305 kts 38°
2026-05-05 18:52 44.18017 25.40141 9455 ft 303 kts 38°
2026-05-05 18:53 44.19608 25.41985 9088 ft 295 kts 38°
2026-05-05 18:53 44.21179 25.43805 8730 ft 293 kts 38°
2026-05-05 18:53 44.22731 25.45602 8367 ft 284 kts 38°
2026-05-05 18:53 44.24220 25.47328 8019 ft 274 kts 38°
2026-05-05 18:54 44.25683 25.49021 7697 ft 280 kts 38°
2026-05-05 18:54 44.27230 25.50808 7381 ft 291 kts 38°
2026-05-05 18:54 44.28788 25.52613 7060 ft 291 kts 38°
2026-05-05 18:54 44.30352 25.54433 6747 ft 294 kts 38°
2026-05-05 18:55 44.31927 25.56267 6422 ft 295 kts 39°
2026-05-05 18:55 44.33502 25.58105 6109 ft 295 kts 39°
2026-05-05 18:55 44.34547 25.59324 5888 ft 295 kts 39°
2026-05-05 18:55 44.36121 25.61159 5567 ft 294 kts 39°
2026-05-05 18:56 44.37688 25.62984 5238 ft 293 kts 39°
2026-05-05 18:56 44.39254 25.64804 4918 ft 293 kts 39°
2026-05-05 18:56 44.40823 25.66630 4582 ft 293 kts 39°
2026-05-05 18:56 44.42379 25.68449 4267 ft 291 kts 39°
2026-05-05 18:57 44.44430 25.70855 3840 ft 288 kts 39°
2026-05-05 18:57 44.45455 25.72059 3605 ft 280 kts 39°
2026-05-05 18:57 44.46897 25.73749 3292 ft 266 kts 39°
2026-05-05 18:57 44.48273 25.75359 2967 ft 250 kts 39°
2026-05-05 18:58 44.49588 25.76900 2673 ft 243 kts 39°
2026-05-05 18:58 44.50873 25.78404 2512 ft 239 kts 40°
2026-05-05 18:58 44.52142 25.79893 2496 ft 239 kts 40°
2026-05-05 18:58 44.53408 25.81396 2493 ft 239 kts 43°
2026-05-05 18:59 44.54378 25.83265 2496 ft 238 kts 67°
2026-05-05 18:59 44.54775 25.85504 2504 ft 236 kts 83°
2026-05-05 18:59 44.54941 25.87703 2495 ft 218 kts 86°
2026-05-05 18:59 44.55087 25.89740 2478 ft 204 kts 85°
2026-05-05 19:00 44.55234 25.91669 2340 ft 197 kts 86°
2026-05-05 19:00 44.55377 25.93516 2133 ft 178 kts 86°
2026-05-05 19:00 44.55505 25.95164 1907 ft 164 kts 86°
2026-05-05 19:00 44.55626 25.96735 1721 ft 159 kts 87°
2026-05-05 19:01 44.55743 25.98258 1538 ft 156 kts 87°
2026-05-05 19:01 44.55859 25.99763 1356 ft 154 kts 86°
2026-05-05 19:01 44.55974 26.01256 1166 ft 154 kts 85°
2026-05-05 19:01 44.56088 26.02739 988 ft 152 kts 87°
2026-05-05 19:02 44.56206 26.04205 805 ft 151 kts 86°
2026-05-05 19:02 44.56316 26.05663 636 ft 149 kts 86°
2026-05-05 19:02 44.56421 26.07101 433 ft 147 kts 86°
2026-05-05 19:02 44.56527 26.08523 331 ft 139 kts 84°
2026-05-05 19:03 44.56618 26.09696 321 ft 98 kts 83°
2026-05-05 19:03 44.56669 26.10407 323 ft 49 kts 84°
2026-05-05 19:03 44.56693 26.10683 321 ft 18 kts 79°
2026-05-05 19:03 44.56784 26.10760 322 ft 17 kts 12°
2026-05-05 19:04 44.56874 26.10748 322 ft 8 kts 352°
2026-05-05 19:04 44.56930 26.10738 322 ft 9 kts 352°
2026-05-05 19:04 44.56989 26.10714 322 ft 9 kts 329°
2026-05-05 19:04 44.57032 26.10641 322 ft 10 kts 301°
2026-05-05 19:05 44.57044 26.10612 322 ft 3 kts 301°
2026-05-05 19:05 44.57055 26.10586 322 ft 0 kts 296°
2026-05-05 19:06 44.57055 26.10585 322 ft 1 kts 296°
2026-05-05 19:06 44.57058 26.10574 322 ft 2 kts 292°
2026-05-05 19:06 44.57064 26.10550 322 ft 3 kts 285°
2026-05-05 19:06 44.57066 26.10514 322 ft 4 kts 272°
2026-05-05 19:07 44.57062 26.10467 321 ft 5 kts 258°
2026-05-05 19:07 44.57058 26.10408 322 ft 7 kts 264°
2026-05-05 19:07 44.57053 26.10338 322 ft 8 kts 264°
2026-05-05 19:07 44.57047 26.10256 322 ft 9 kts 265°
2026-05-05 19:08 44.57041 26.10163 322 ft 10 kts 263°
2026-05-05 19:08 44.57033 26.10059 322 ft 11 kts 264°
2026-05-05 19:08 44.57024 26.09944 322 ft 12 kts 264°
2026-05-05 19:08 44.57014 26.09818 322 ft 14 kts 264°
2026-05-05 19:09 44.57004 26.09682 322 ft 15 kts 264°
2026-05-05 19:09 44.56992 26.09538 322 ft 11 kts 264°
2026-05-05 19:09 44.56984 26.09432 322 ft 11 kts 264°
2026-05-05 19:09 44.56976 26.09319 322 ft 12 kts 264°
2026-05-05 19:10 44.56966 26.09196 322 ft 13 kts 264°
2026-05-05 19:10 44.56956 26.09068 322 ft 11 kts 264°
2026-05-05 19:10 44.56949 26.08974 322 ft 7 kts 264°
2026-05-05 19:10 44.56947 26.08946 322 ft 2 kts 264°
2026-05-05 19:11 44.56946 26.08940 322 ft 0 kts 258°
2026-05-05 19:11 44.56944 26.08938 322 ft 1 kts 241°
2026-05-05 19:11 44.56934 26.08926 322 ft 3 kts 220°
2026-05-05 19:11 44.56911 26.08922 322 ft 3 kts 168°
2026-05-05 19:12 44.56894 26.08927 321 ft 1 kts 172°
2026-05-05 19:12 44.56892 26.08927 322 ft 0 kts 173°